Location: Olsztyn
(53.7767°N, 20.4765°E)
Time: 08:24:29
(UTC+01:00)

Transit 4A - Pass Details

Date: 05 October 2022
Orbit: 871 x 972 km, 66.8° (Epoch: 06 December)

Event Time Altitude Azimuth Distance (km) Brightness Sun altitude
Exits shadow 02:33:51 20° 329° (NNW) 1,976 9.7 -34.5°
Maximum altitude 02:35:53 23° 357° (N) 1,799 9.7 -34.3°
Drops below altitude 10° 02:40:32 10° 49° (NE) 2,549 11.0 -33.8°
Sets 02:43:33 0° 64° (ENE) 3,479 11.8 -33.5°
